ATLAS D R/B, 2328

Orbit data source: Space-Track

ATLAS D R/B, 2328 is space debris in LEO originally from a launch on Thu, 14 Jul 1966 UTC launched from the Air Force Western Test Range (AFWTR). Debris objects in space refer to the collection of defunct objects orbiting the Earth. Examples of debris include non-operational satellites, rocket bodies, and fragments generated from explosions, collisions, or faulty payload assembly.

Loading next visibility...
Identifier
2328, 1966-063C
Orbit
LEO
Last TLE update
11 hours ago
Origin
Manufacturer
ABL
Mission
Spacecraft
Bus & Motor
ALTAIR, Unknown motor
Mass
~125 kg wet, ~125 kg dry
Launch date (UTC)
1966-07-14 (59 years ago)
Launch vehicle
Unknown
Launch site
Air Force Western Test Range (AFWTR)
Object type
Payload
Rocket body
Debris
Shape & HBR
Cyl, 3.1 m
Radar Cross Section
8.765 m², Medium (>0.1 m² and < 1m²)

Expand to show TLE details & history

TLE from 11 hours ago
0 ATLAS D R/B
1 02328U 66063C   25182.62952235  .00000257  00000-0  11271-4 0  9998
2 02328 144.2291 132.2116 0010365 288.1182 239.5634 13.69953746952158
Epoch: 2025-07-01T15:06Z
TLE epoch observation values (Epoch: 2025-07-01T15:06:30.731Z)
Latitude
7.2237°
Longitude
175.74111°
Altitude
1,002.027 km
Speed
7.351 km/s
True Right ascension
21h 29m 09s
True Declination
7° 10' 56"
Sunlit
Object was in full shadow at epoch
Visualization orbit readout
Latitude
-35.26086°
Longitude
65.39061°
Altitude
1,001.696 km
Speed
7.355 km/s
Apparent Right ascension
15h 20m 18s
Apparent Declination
-81° 44' 01"
Sunlit
Object is in daylight
Visualization observer readout
Local Sidereal Time
13:50:09
Azimuth
176.266° S
Elevation
-32.218°
Doppler factor
1
Orbital elements
Apogee altitude
1,010.302 km
Perigee altitude
995.002 km
Semi-major axis
7,380.789 km
Eccentricity
0.00104
Inclination
144.2291°
RAAN
132.2116°
Arg. of periapsis
288.1182°
True anomaly
Unknown
Mean anomaly
239.5634°
Eccentric anomaly
Unknown
Mean motion
3.42286 °/min
Orbital period
105.18 mins
BSTAR
0.000011271
Loading maneuver chart data...
Loading SW <> Apogee altitude chart data...
Loading historical data...
Loading historical data...
Loading historical data...
Loading historical data...
Loading historical data...
Loading historical data...
Loading historical data...

ATLAS D R/B Visibility forecast

Observer location: undefined°, undefined°

Span
Click to sort rows by Start time (UTC) header in descending order
Start Az.
Max El. time (UTC)
Max El. Az.
Max El.
End time (UTC)
End Az.
8 mins2025-07-02 11:51:08.008Z108.521° ESE2025-07-02 11:55:08.008Z157.529° S21.625°2025-07-02 11:59:08.008Z202.188° SSW
10 mins2025-07-02 13:30:08.008Z97.601° ESE2025-07-02 13:34:08.008Z153.291° SSE35.722°2025-07-02 13:40:08.008Z237.57° WSW
9 mins2025-07-02 15:10:08.008Z103.876° ESE2025-07-02 15:14:08.008Z184.387° SSW41.346°2025-07-02 15:19:08.008Z257.094° W
10 mins2025-07-02 16:49:08.008Z121.535° SE2025-07-02 16:53:08.008Z180.21° SSW37.869°2025-07-02 16:59:08.008Z267.282° W
7 mins2025-07-02 18:30:08.008Z161.941° S2025-07-02 18:33:08.008Z204.644° SW25.332°2025-07-02 18:37:08.008Z255.638° W
|